This is the latest recevied weather packets stored in our database for station/object OH5GWF-1. If no packets are shown the sender has not sent any weather packets the latest 10 day(s).
| Time | Temp. | Humidity | Pressure | Rain* | Wind** | Luminosity | Snow |
|---|---|---|---|---|---|---|---|
| 1777800353 | 13.89° C | 64% | 1007 hPa | 0 mm | - | - | - |
| 1777799990 | 13.33° C | 63% | 1007 hPa | 0 mm | - | - | - |
| 1777799690 | 13.33° C | 65% | 1006.8 hPa | 0 mm | - | - | - |
| 1777799580 | 13.33° C | 65% | 1006.9 hPa | 0 mm | - | - | - |
| 1777799157 | 12.78° C | 66% | 1006.8 hPa | 0 mm | - | - | - |
| 1777799025 | 12.78° C | 66% | 1006.7 hPa | 0 mm | - | - | - |
| 1777798734 | 12.78° C | 66% | 1006.6 hPa | 0 mm | - | - | - |
| 1777798363 | 12.22° C | 65% | 1006.7 hPa | 0 mm | - | - | - |
| 1777798313 | 12.22° C | 65% | 1006.7 hPa | 0 mm | - | - | - |
| 1777797891 | 12.78° C | 64% | 1006.5 hPa | 0 mm | - | - | - |
| 1777797711 | 12.78° C | 64% | 1006.5 hPa | 0 mm | - | - | - |
| 1777797480 | 12.78° C | 64% | 1006.5 hPa | 0 mm | - | - | - |
| 1777797047 | 12.78° C | 64% | 1006.4 hPa | 0 mm | - | - | - |
| 1777796636 | 13.33° C | 63% | 1006.3 hPa | 0 mm | - | - | - |
| 1777796386 | 13.33° C | 62% | 1006.2 hPa | 0 mm | - | - | - |
| 1777796216 | 13.33° C | 62% | 1006.2 hPa | 0 mm | - | - | - |
| 1777795794 | 13.33° C | 62% | 1006.2 hPa | 0 mm | - | - | - |
| 1777795722 | 13.33° C | 62% | 1006.2 hPa | 0 mm | - | - | - |
| 1777795371 | 13.89° C | 61% | 1006.2 hPa | 0 mm | - | - | - |
| 1777795071 | 14.44° C | 62% | 1006.2 hPa | 0 mm | - | - | - |
| 1777794949 | 14.44° C | 62% | 1006.1 hPa | 0 mm | - | - | - |
| 1777794539 | 13.89° C | 63% | 1006.2 hPa | 0 mm | - | - | - |
| 1777794409 | 13.89° C | 63% | 1006.1 hPa | 0 mm | - | - | - |
| 1777794117 | 13.33° C | 64% | 1006.1 hPa | 0 mm | - | - | - |
| 1777793743 | 12.78° C | 65% | 1006.3 hPa | 0 mm | - | - | - |
* Rain latest hour (hover to see other rain measurements)
** Current wind speed in m/s (hover to see current wind gust speed)